When you browse on this site, cookies collect data to enhance your experience and personalize the content and advertising you see.
Visit our Privacy Policy to learn more. By continuing to use the site, you agree to this use of cookies and data.
  • In Latvia
  • List of Countries
  • For 7 days
  • Water Temperature
  • Weather Map
  • Weather Widgets
  • user-avatar
    Login

    Hourly Weather Carouge

    Today, 3 June, Wednesday

    Time Temperature Precipitation Wind Pressure Humidity
    00:00 +15°C° 0 mm 1 mps 723 mmHg 90%
    01:00 +15°C° 0.1 mm 1 mps 723 mmHg 91%
    02:00 +14°C° 0.1 mm 1 mps 722 mmHg 92%
    03:00 +14°C° 0.1 mm 1 mps 722 mmHg 92%
    04:00 +15°C° 0.1 mm 1 mps 722 mmHg 91%
    05:00 +16°C° 0.1 mm 1 mps 721 mmHg 90%
    06:00 +19°C° 0.1 mm 1 mps 721 mmHg 90%
    07:00 +20°C° 0.3 mm 1 mps 721 mmHg 84%
    08:00 +22°C° 0.3 mm 1 mps 720 mmHg 79%
    09:00 +23°C° 0.3 mm 2 mps 720 mmHg 73%
    10:00 +24°C° 0.4 mm 2 mps 720 mmHg 68%
    11:00 +25°C° 0.4 mm 2 mps 719 mmHg 63%
    12:00 +25°C° 0.4 mm 2 mps 719 mmHg 58%
    13:00 +25°C° 0.8 mm 2 mps 719 mmHg 63%
    14:00 +24°C° 0.8 mm 2 mps 718 mmHg 68%
    15:00 +24°C° 0.8 mm 3 mps 718 mmHg 72%
    16:00 +21°C° 1 mm 2 mps 717 mmHg 78%
    17:00 +20°C° 1 mm 2 mps 717 mmHg 84%
    18:00 +19°C° 1 mm 2 mps 717 mmHg 90%
    19:00 +18°C° 1.1 mm 2 mps 717 mmHg 91%
    20:00 +17°C° 1.1 mm 2 mps 717 mmHg 92%
    21:00 +17°C° 1.1 mm 2 mps 717 mmHg 92%
    22:00 +16°C° 1.2 mm 2 mps 717 mmHg 94%
    23:00 +16°C° 1.2 mm 2 mps 716 mmHg 95%

    Tomorrow, 4 June, Thursday

    Time Temperature Precipitation Wind Pressure Humidity
    00:00 +16°C° 1.2 mm 2 mps 716 mmHg 97%
    01:00 +16°C° 2.1 mm 2 mps 715 mmHg 97%
    02:00 +16°C° 2.1 mm 1 mps 715 mmHg 97%
    03:00 +16°C° 2.1 mm 1 mps 715 mmHg 97%
    04:00 +16°C° 1 mm 1 mps 714 mmHg 97%
    05:00 +16°C° 1 mm 1 mps 714 mmHg 96%
    06:00 +16°C° 1 mm 2 mps 714 mmHg 96%
    07:00 +16°C° 0.9 mm 2 mps 713 mmHg 95%
    08:00 +16°C° 0.9 mm 2 mps 713 mmHg 94%
    09:00 +16°C° 0.9 mm 2 mps 713 mmHg 92%
    10:00 +16°C° 1.1 mm 2 mps 713 mmHg 92%
    11:00 +16°C° 1.1 mm 2 mps 713 mmHg 92%
    12:00 +16°C° 1.1 mm 2 mps 713 mmHg 91%
    13:00 +16°C° 0.8 mm 2 mps 712 mmHg 92%
    14:00 +15°C° 0.8 mm 2 mps 712 mmHg 93%
    15:00 +15°C° 0.8 mm 2 mps 712 mmHg 94%
    16:00 +15°C° 0.3 mm 1 mps 712 mmHg 94%
    17:00 +15°C° 0.3 mm 1 mps 712 mmHg 93%
    18:00 +16°C° 0.3 mm 1 mps 712 mmHg 92%
    19:00 +14°C° 0.1 mm 1 mps 713 mmHg 92%
    20:00 +13°C° 0.1 mm 1 mps 713 mmHg 92%
    21:00 +12°C° 0.1 mm 1 mps 713 mmHg 91%
    22:00 +13°C° 0.3 mm 1 mps 713 mmHg 93%
    23:00 +13°C° 0.3 mm 1 mps 714 mmHg 95%

    Day after tomorrow, 5 June, Friday

    Time Temperature Precipitation Wind Pressure Humidity
    00:00 +13°C° 0.3 mm 1 mps 714 mmHg 96%
    01:00 +13°C° 0.6 mm 1 mps 714 mmHg 96%
    02:00 +12°C° 0.6 mm 1 mps 714 mmHg 96%
    03:00 +12°C° 0.6 mm 1 mps 714 mmHg 97%
    04:00 +12°C° 0.4 mm 1 mps 715 mmHg 96%
    05:00 +12°C° 0.4 mm 1 mps 715 mmHg 95%
    06:00 +12°C° 0.4 mm 1 mps 715 mmHg 94%
    07:00 +12°C° 0.3 mm 2 mps 716 mmHg 91%
    08:00 +13°C° 0.3 mm 2 mps 716 mmHg 88%
    09:00 +13°C° 0.3 mm 2 mps 716 mmHg 84%
    10:00 +14°C° 0.2 mm 2 mps 716 mmHg 79%
    11:00 +14°C° 0.2 mm 3 mps 716 mmHg 73%
    12:00 +16°C° 0.2 mm 3 mps 716 mmHg 67%
    13:00 +15°C° 0.1 mm 4 mps 717 mmHg 65%
    14:00 +17°C° 0.1 mm 4 mps 717 mmHg 62%
    15:00 +17°C° 0.1 mm 4 mps 717 mmHg 60%
    16:00 +14°C° 0.3 mm 4 mps 717 mmHg 71%
    17:00 +13°C° 0.3 mm 3 mps 717 mmHg 81%
    18:00 +11°C° 0.3 mm 3 mps 717 mmHg 91%
    19:00 +11°C° 0.5 mm 3 mps 718 mmHg 93%
    20:00 +11°C° 0.5 mm 3 mps 718 mmHg 94%
    21:00 +11°C° 0.5 mm 3 mps 719 mmHg 95%
    22:00 +11°C° 0.5 mm 3 mps 719 mmHg 95%
    23:00 +12°C° 0.5 mm 3 mps 718 mmHg 95%

    6 June, Saturday

    Time Temperature Precipitation Wind Pressure Humidity
    00:00 +12°C° 0.5 mm 3 mps 718 mmHg 95%
    01:00 +12°C° 0.3 mm 3 mps 718 mmHg 95%
    02:00 +12°C° 0.3 mm 3 mps 718 mmHg 95%
    03:00 +12°C° 0.3 mm 3 mps 718 mmHg 95%
    04:00 +12°C° 0.3 mm 3 mps 718 mmHg 95%
    05:00 +12°C° 0.3 mm 3 mps 718 mmHg 96%
    06:00 +12°C° 0.3 mm 3 mps 718 mmHg 96%
    07:00 +13°C° 0.2 mm 3 mps 719 mmHg 96%
    08:00 +13°C° 0.2 mm 3 mps 719 mmHg 95%
    09:00 +13°C° 0.2 mm 3 mps 719 mmHg 95%
    10:00 +14°C° 0.2 mm 3 mps 719 mmHg 95%
    11:00 +14°C° 0.2 mm 3 mps 719 mmHg 94%
    12:00 +16°C° 0.2 mm 2 mps 718 mmHg 93%
    13:00 +16°C° 0.5 mm 2 mps 718 mmHg 94%
    14:00 +16°C° 0.5 mm 2 mps 718 mmHg 94%
    15:00 +16°C° 0.5 mm 2 mps 718 mmHg 94%
    16:00 +16°C° 0.9 mm 2 mps 718 mmHg 95%
    17:00 +15°C° 0.9 mm 2 mps 718 mmHg 96%
    18:00 +15°C° 0.9 mm 2 mps 718 mmHg 96%
    19:00 +15°C° 2.9 mm 2 mps 719 mmHg 97%
    20:00 +15°C° 2.9 mm 2 mps 719 mmHg 97%
    21:00 +15°C° 2.9 mm 2 mps 720 mmHg 98%
    22:00 +15°C° 0.8 mm 2 mps 720 mmHg 98%
    23:00 +14°C° 0.8 mm 2 mps 720 mmHg 97%

    7 June, Sunday

    Time Temperature Precipitation Wind Pressure Humidity
    00:00 +14°C° 0.8 mm 2 mps 720 mmHg 97%
    01:00 +14°C° 0.2 mm 2 mps 720 mmHg 97%
    02:00 +14°C° 0.2 mm 2 mps 720 mmHg 97%
    03:00 +13°C° 0.2 mm 2 mps 720 mmHg 97%
    04:00 +13°C° 0.2 mm 2 mps 720 mmHg 97%
    05:00 +13°C° 0.2 mm 2 mps 720 mmHg 97%
    06:00 +13°C° 0.2 mm 2 mps 721 mmHg 96%
    07:00 +13°C° 0.2 mm 2 mps 721 mmHg 96%
    08:00 +13°C° 0.2 mm 2 mps 721 mmHg 95%
    09:00 +13°C° 0.2 mm 2 mps 721 mmHg 95%
    10:00 +14°C° 0.1 mm 2 mps 721 mmHg 88%
    11:00 +15°C° 0.1 mm 2 mps 721 mmHg 81%
    12:00 +16°C° 0.1 mm 2 mps 721 mmHg 74%
    13:00 +16°C° 0.1 mm 2 mps 721 mmHg 68%
    14:00 +17°C° 0.1 mm 2 mps 721 mmHg 62%
    15:00 +18°C° 0.1 mm 2 mps 721 mmHg 56%
    16:00 +17°C° 0 mm 2 mps 721 mmHg 60%
    17:00 +16°C° 0 mm 2 mps 721 mmHg 64%
    18:00 +16°C° 0 mm 1 mps 721 mmHg 68%
    19:00 +14°C° 0 mm 1 mps 722 mmHg 71%
    20:00 +12°C° 0 mm 1 mps 722 mmHg 75%
    21:00 +11°C° 0 mm 1 mps 723 mmHg 78%
    22:00 +10°C° 0 mm 1 mps 723 mmHg 79%
    23:00 +10°C° 0 mm 1 mps 723 mmHg 79%

    8 June, Monday

    Time Temperature Precipitation Wind Pressure Humidity
    00:00 +9°C° 0 mm 1 mps 723 mmHg 80%
    01:00 +9°C° 0 mm 1 mps 723 mmHg 83%
    02:00 +8°C° 0 mm 1 mps 723 mmHg 85%
    03:00 +7°C° 0 mm 0 mps 723 mmHg 88%
    04:00 +9°C° 0 mm 0 mps 723 mmHg 84%
    05:00 +10°C° 0 mm 0 mps 723 mmHg 79%
    06:00 +11°C° 0 mm 0 mps 724 mmHg 75%
    07:00 +14°C° 0 mm 1 mps 724 mmHg 71%
    08:00 +15°C° 0 mm 1 mps 724 mmHg 66%
    09:00 +18°C° 0 mm 1 mps 723 mmHg 61%
    10:00 +18°C° 0.1 mm 1 mps 723 mmHg 57%
    11:00 +18°C° 0.1 mm 2 mps 723 mmHg 54%
    12:00 +19°C° 0.1 mm 2 mps 723 mmHg 50%
    13:00 +19°C° 0.1 mm 2 mps 723 mmHg 50%
    14:00 +19°C° 0.1 mm 2 mps 723 mmHg 50%
    15:00 +20°C° 0.1 mm 2 mps 723 mmHg 50%
    16:00 +20°C° 0 mm 1 mps 723 mmHg 57%
    17:00 +19°C° 0 mm 1 mps 723 mmHg 64%
    18:00 +18°C° 0 mm 1 mps 724 mmHg 71%
    19:00 +15°C° 0 mm 1 mps 724 mmHg 76%
    20:00 +13°C° 0 mm 1 mps 724 mmHg 82%
    21:00 +12°C° 0 mm 1 mps 725 mmHg 88%
    22:00 +11°C° 0 mm 1 mps 725 mmHg 88%
    23:00 +11°C° 0 mm 1 mps 725 mmHg 88%
    Show more